This is the latest recevied weather packets stored in our database for station/object SR6WVX. If no packets are shown the sender has not sent any weather packets the latest 10 day(s).
| Time | Temp. | Humidity | Pressure | Rain* | Wind** | Luminosity | Snow |
|---|---|---|---|---|---|---|---|
| 1777527338 | 8.33° C | 58% | 1027.6 hPa | 0 mm | - | - | - |
| 1777527038 | 7.78° C | 58% | 1027.6 hPa | 0 mm | - | - | - |
| 1777526738 | 7.78° C | 60% | 1027.7 hPa | 0 mm | - | - | - |
| 1777526437 | 7.78° C | 62% | 1027.5 hPa | 0 mm | - | - | - |
| 1777526137 | 7.78° C | 66% | 1027.7 hPa | 0 mm | - | - | - |
| 1777525837 | 6.67° C | 69% | 1027.5 hPa | 0 mm | - | - | - |
| 1777525537 | 6.67° C | 70% | 1027.6 hPa | 0 mm | - | - | - |
| 1777525236 | 6.11° C | 75% | 1027.6 hPa | 0 mm | - | - | - |
| 1777524936 | 5.56° C | 78% | 1027.6 hPa | 0 mm | - | - | - |
| 1777524636 | 4.44° C | 81% | 1027.7 hPa | 0 mm | - | - | - |
| 1777524335 | 3.89° C | 84% | 1027.4 hPa | 0 mm | - | - | - |
| 1777524035 | 2.22° C | 87% | 1027.5 hPa | 0 mm | - | - | - |
| 1777523735 | 1.11° C | 88% | 1027.5 hPa | 0 mm | - | - | - |
| 1777523435 | 0° C | 88% | 1027.4 hPa | 0 mm | - | - | - |
| 1777523134 | -2.22° C | 88% | 1027.4 hPa | 0 mm | - | - | - |
| 1777522834 | -2.78° C | 87% | 1027.5 hPa | 0 mm | - | - | - |
| 1777522534 | -3.89° C | 86% | 1027.4 hPa | 0 mm | - | - | - |
| 1777522233 | -5° C | 84% | 1027.4 hPa | 0 mm | - | - | - |
| 1777521933 | -5° C | 84% | 1027.4 hPa | 0 mm | - | - | - |
| 1777521633 | -5° C | 83% | 1027.4 hPa | 0 mm | - | - | - |
| 1777521333 | -5.56° C | 83% | 1027.4 hPa | 0 mm | - | - | - |
| 1777521033 | -5.56° C | 83% | 1027.4 hPa | 0 mm | - | - | - |
| 1777520732 | -5.56° C | 82% | 1027.4 hPa | 0 mm | - | - | - |
| 1777520432 | -6.11° C | 80% | 1027.2 hPa | 0 mm | - | - | - |
| 1777520132 | -6.11° C | 80% | 1027.1 hPa | 0 mm | - | - | - |
* Rain latest hour (hover to see other rain measurements)
** Current wind speed in m/s (hover to see current wind gust speed)